NOAA 16 DEB

Satellite information

Favourite Embed

Satellite Type and Status

DEBRISIN ORBIT

Key statistics

Satellite NOAA 16 DEB at a glance.

Uptime

9164

Days in orbit

Revolutions

≈ 14.7

Per day

Orbit

SSO

Sun Synchronous Orbit

Inclination

98.9

Latest

Satellite identification and parameters

Extended collection of information and parameters for NOAA 16 DEB.

Object identification

Identified? True

Debris? True

Object name: NOAA 16 DEB

International designator: 2000-055H

Object number (NORAD): 41050

Object ID (CCSDS): 41050

Country: UNITED STATES OF AMERICA (US)

Current information (Y/N): Y

RCS size: MEDIUM

Orbital parameters

Period: 97.704 minutes

Inclination: 98.9315 deg

SMA: 7026.999 km

Apoapsis: 656.66 km

Periapsis: 641.068 km

RAAN: 126.2481 deg

Eccentricy: 0.0011094

Argument of periapsis: 71.4536 deg

Mean anomaly: 288.7874 deg

Mean motion: 14.73831848 rev/day

Mean motion (dot): 0.00041371 rev/day2

B* drag term: 0.0062843 1/REarth

Two-line elements (TLE)

Creation date: Oct. 23, 2025, 10:06 p.m.

Reference frame: TEME

Reference center: EARTH

Epoch: Oct. 23, 2025, 11:33 a.m. UTC

TLE line 0: 0 NOAA 16 DEB

TLE line 1: 1 41050U 00055H 25296.48152816 .00041371 00000-0 62843-2 0 9990

TLE line 2: 2 41050 98.9315 126.2481 0011094 71.4536 288.7874 14.73831848516083

Live tracking on map

Real-time ground track for satellite NOAA 16 DEB.

In-orbit conjunctions

A list of the most updated potential collisions computed for object NOAA 16 DEB.

Target Orbit TCA Probability of collision Miss distance Type
PEGASUS DEB LEO 2025-09-02 08:01:09 0.0003347375 76.0 (m) DEBRIS
COSMOS 2251 DEB LEO 2024-07-31 10:25:29 0.0002673866 226.0 (m) DEBRIS

Associated space launch

The NOAA K, L and M POES satellites begin the fifth generation of improved environmental monitoring in support of NOAA missions. The instrument payload has significant improvements and additions/deletions. The instrument changes have effected the spacecraft subsystems and data formats.

NOAA 16 DEB was lifted into orbit during the mission ‘Titan II SLV | NOAA 16’, on board a Titan II SLV space rocket.

The launch took place on Sept. 21, 2000, 10:22 a.m. from Space Launch Complex 4W.

For more information about the launch, click the button.

Launch to space Titan II SLV | NOAA 16
Titan II SLV | NOAA 16

Agency: N/A

Status: Launch Successful

Launch date: Sept. 21, 2000, 10:22 a.m. UTC

Rocket: Titan II SLV

Launch pad: Space Launch Complex 4W

Location: Vandenberg SFB, CA, USA

...

Latest news about this satellite

There are no fresh news available about this satellite. Check back as we update our databases every day.


Newsletter sign-up

Weekly statistics, charts and insights to help you stay on top of the space industry.